ASL32A LYBE-LYTV

Flight info

Callsign ASL32A
Flight time 0h 53m
Altitude 28000
Route VAL DCT MOJ/N0338F190 N732 POD
Aircraft A320/M-SDE3FGHIRWY/LB1

Departure

Time 2026-05-09 08:17
Airport Belgrade Nikola Tesla Airport (LYBE)

Arrival

Time 2026-05-09 09:10
Airport Tivat Airport (LYTV)
Time Latitude Longitude Altitude Speed Heading
2026-05-09 07:49 44.82290 20.28856 308 ft 0 kts 211°
2026-05-09 07:54 44.82291 20.28856 307 ft 0 kts 211°
2026-05-09 08:06 44.82303 20.28867 307 ft 4 kts 212°
2026-05-09 08:06 44.82322 20.28883 307 ft 4 kts 210°
2026-05-09 08:06 44.82341 20.28889 304 ft 4 kts 139°
2026-05-09 08:07 44.82356 20.28861 308 ft 4 kts 122°
2026-05-09 08:07 44.82365 20.28842 306 ft 0 kts 122°
2026-05-09 08:10 44.82361 20.28850 307 ft 3 kts 122°
2026-05-09 08:10 44.82346 20.28884 307 ft 6 kts 123°
2026-05-09 08:10 44.82319 20.28942 307 ft 8 kts 123°
2026-05-09 08:10 44.82283 20.29021 307 ft 11 kts 122°
2026-05-09 08:11 44.82240 20.29119 307 ft 13 kts 122°
2026-05-09 08:11 44.82188 20.29236 307 ft 15 kts 122°
2026-05-09 08:11 44.82127 20.29372 309 ft 18 kts 122°
2026-05-09 08:11 44.82084 20.29503 307 ft 11 kts 67°
2026-05-09 08:12 44.82055 20.29724 309 ft 15 kts 122°
2026-05-09 08:12 44.81994 20.29864 307 ft 18 kts 122°
2026-05-09 08:12 44.81920 20.30028 306 ft 21 kts 122°
2026-05-09 08:13 44.81839 20.30213 306 ft 23 kts 122°
2026-05-09 08:13 44.81749 20.30416 307 ft 26 kts 123°
2026-05-09 08:13 44.81648 20.30639 308 ft 28 kts 122°
2026-05-09 08:13 44.81539 20.30887 306 ft 31 kts 121°
2026-05-09 08:14 44.81419 20.31158 306 ft 34 kts 121°
2026-05-09 08:14 44.81316 20.31390 306 ft 26 kts 122°
2026-05-09 08:14 44.81215 20.31620 307 ft 28 kts 122°
2026-05-09 08:14 44.81119 20.31837 308 ft 22 kts 122°
2026-05-09 08:15 44.81038 20.32021 306 ft 21 kts 122°
2026-05-09 08:15 44.80989 20.32178 305 ft 18 kts 85°
2026-05-09 08:15 44.81082 20.32297 305 ft 20 kts 14°
2026-05-09 08:15 44.81221 20.32262 307 ft 21 kts 326°
2026-05-09 08:16 44.81318 20.32096 309 ft 25 kts 302°
2026-05-09 08:16 44.81496 20.31695 307 ft 81 kts 302°
2026-05-09 08:16 44.81903 20.30779 307 ft 136 kts 302°
2026-05-09 08:16 44.82479 20.29521 622 ft 158 kts 303°
2026-05-09 08:17 44.83049 20.28207 1353 ft 156 kts 295°
2026-05-09 08:17 44.83076 20.26676 1904 ft 170 kts 248°
2026-05-09 08:17 44.82266 20.25309 2246 ft 196 kts 224°
2026-05-09 08:17 44.81212 20.23928 2559 ft 218 kts 224°
2026-05-09 08:18 44.80046 20.22397 2972 ft 240 kts 224°
2026-05-09 08:18 44.78806 20.20761 3790 ft 247 kts 224°
2026-05-09 08:18 44.77539 20.19085 4697 ft 253 kts 224°
2026-05-09 08:18 44.76243 20.17366 5652 ft 258 kts 225°
2026-05-09 08:19 44.74924 20.15609 6598 ft 263 kts 225°
2026-05-09 08:19 44.73589 20.13822 7552 ft 266 kts 224°
2026-05-09 08:19 44.72246 20.12024 8562 ft 267 kts 224°
2026-05-09 08:19 44.70901 20.10221 9564 ft 268 kts 225°
2026-05-09 08:20 44.69550 20.08409 10498 ft 269 kts 225°
2026-05-09 08:20 44.68180 20.06611 11352 ft 271 kts 221°
2026-05-09 08:20 44.66574 20.05175 12030 ft 284 kts 206°
2026-05-09 08:20 44.64677 20.04149 12550 ft 298 kts 201°
2026-05-09 08:21 44.62714 20.03141 13309 ft 303 kts 201°
2026-05-09 08:21 44.60721 20.02120 14088 ft 306 kts 202°
2026-05-09 08:21 44.58711 20.01084 14797 ft 310 kts 202°
2026-05-09 08:21 44.56704 20.00045 15485 ft 314 kts 201°
2026-05-09 08:22 44.54644 19.98979 16183 ft 317 kts 201°
2026-05-09 08:22 44.52562 19.97900 16884 ft 321 kts 201°
2026-05-09 08:22 44.50460 19.96808 17574 ft 324 kts 201°
2026-05-09 08:22 44.48329 19.95701 18260 ft 328 kts 201°
2026-05-09 08:23 44.46174 19.94584 18891 ft 332 kts 201°
2026-05-09 08:23 44.43998 19.93458 19517 ft 335 kts 201°
2026-05-09 08:23 44.41804 19.92321 20149 ft 337 kts 201°
2026-05-09 08:23 44.39593 19.91177 20752 ft 340 kts 201°
2026-05-09 08:24 44.37364 19.90026 21322 ft 343 kts 201°
2026-05-09 08:24 44.35114 19.88870 21881 ft 346 kts 201°
2026-05-09 08:24 44.32841 19.87725 22441 ft 349 kts 198°
2026-05-09 08:24 44.30435 19.86998 22745 ft 361 kts 191°
2026-05-09 08:25 44.27905 19.86426 22891 ft 376 kts 190°
2026-05-09 08:25 44.25270 19.85851 23067 ft 389 kts 190°
2026-05-09 08:25 44.22571 19.85271 23475 ft 395 kts 190°
2026-05-09 08:25 44.19838 19.84686 23916 ft 399 kts 190°
2026-05-09 08:26 44.17076 19.84088 24356 ft 403 kts 191°
2026-05-09 08:26 44.14291 19.83478 24797 ft 406 kts 191°
2026-05-09 08:26 44.11488 19.82857 25228 ft 410 kts 191°
2026-05-09 08:26 44.08664 19.82225 25655 ft 413 kts 192°
2026-05-09 08:27 44.05815 19.81590 26076 ft 416 kts 192°
2026-05-09 08:27 44.02941 19.80953 26492 ft 420 kts 192°
2026-05-09 08:27 44.00045 19.80316 26926 ft 423 kts 192°
2026-05-09 08:27 43.97132 19.79680 27358 ft 425 kts 192°
2026-05-09 08:28 43.94198 19.79040 27768 ft 428 kts 192°
2026-05-09 08:28 43.91245 19.78394 28070 ft 431 kts 193°
2026-05-09 08:28 43.88307 19.77759 28129 ft 419 kts 193°
2026-05-09 08:28 43.85478 19.77152 28130 ft 406 kts 193°
2026-05-09 08:29 43.79952 19.75946 28131 ft 399 kts 193°
2026-05-09 08:29 43.74466 19.74738 28130 ft 398 kts 193°
2026-05-09 08:30 43.68991 19.73544 28133 ft 399 kts 193°
2026-05-09 08:30 43.63500 19.72350 28119 ft 399 kts 193°
2026-05-09 08:31 43.58022 19.71166 28127 ft 398 kts 193°
2026-05-09 08:31 43.52547 19.69984 28131 ft 398 kts 193°
2026-05-09 08:32 43.48000 19.68998 28127 ft 398 kts 193°
2026-05-09 08:33 43.38908 19.67043 28130 ft 397 kts 192°
2026-05-09 08:33 43.33444 19.65881 28134 ft 397 kts 193°
2026-05-09 08:34 43.28871 19.64894 28136 ft 397 kts 193°
2026-05-09 08:34 43.23414 19.63710 28124 ft 397 kts 193°
2026-05-09 08:35 43.17993 19.62553 28129 ft 397 kts 192°
2026-05-09 08:35 43.12538 19.61394 28126 ft 396 kts 192°
2026-05-09 08:36 43.07083 19.60228 28134 ft 397 kts 192°
2026-05-09 08:36 43.01623 19.59073 27966 ft 393 kts 192°
2026-05-09 08:36 42.98951 19.58514 27687 ft 386 kts 192°
2026-05-09 08:37 42.96304 19.57957 27285 ft 383 kts 193°
2026-05-09 08:37 42.93742 19.57105 26891 ft 375 kts 203°
2026-05-09 08:37 42.91351 19.55760 26471 ft 370 kts 207°
2026-05-09 08:37 42.88994 19.54381 26089 ft 367 kts 207°
2026-05-09 08:38 42.86648 19.53018 25686 ft 365 kts 207°
2026-05-09 08:38 42.84315 19.51669 25274 ft 363 kts 207°
2026-05-09 08:38 42.82000 19.50333 24856 ft 361 kts 207°
2026-05-09 08:38 42.79696 19.49004 24443 ft 359 kts 207°
2026-05-09 08:39 42.77399 19.47681 24022 ft 358 kts 207°
2026-05-09 08:39 42.75104 19.46357 23592 ft 358 kts 207°
2026-05-09 08:39 42.72816 19.45039 23125 ft 356 kts 207°
2026-05-09 08:39 42.70547 19.43735 22722 ft 352 kts 207°
2026-05-09 08:40 42.68292 19.42442 22302 ft 350 kts 207°
2026-05-09 08:40 42.66085 19.41177 21898 ft 348 kts 206°
2026-05-09 08:40 42.63858 19.39898 21479 ft 347 kts 207°
2026-05-09 08:40 42.61643 19.38623 21073 ft 345 kts 206°
2026-05-09 08:41 42.59411 19.37338 20659 ft 343 kts 206°
2026-05-09 08:41 42.57220 19.36081 20255 ft 342 kts 206°
2026-05-09 08:41 42.55058 19.34846 19847 ft 341 kts 206°
2026-05-09 08:41 42.52875 19.33599 19449 ft 340 kts 206°
2026-05-09 08:42 42.50700 19.32357 19049 ft 339 kts 205°
2026-05-09 08:42 42.48528 19.31119 18648 ft 338 kts 205°
2026-05-09 08:42 42.46359 19.29881 18230 ft 338 kts 205°
2026-05-09 08:42 42.44194 19.28648 17797 ft 336 kts 205°
2026-05-09 08:43 42.42044 19.27424 17397 ft 334 kts 205°
2026-05-09 08:43 42.39909 19.26207 17002 ft 332 kts 205°
2026-05-09 08:43 42.37742 19.25142 16606 ft 333 kts 197°
2026-05-09 08:43 42.35505 19.24334 16204 ft 332 kts 197°
2026-05-09 08:44 42.33271 19.23531 15805 ft 333 kts 197°
2026-05-09 08:44 42.31035 19.22729 15404 ft 332 kts 196°
2026-05-09 08:44 42.28806 19.21928 15007 ft 331 kts 196°
2026-05-09 08:44 42.26588 19.21126 14612 ft 329 kts 196°
2026-05-09 08:45 42.24381 19.20330 14215 ft 328 kts 196°
2026-05-09 08:45 42.22186 19.19540 13812 ft 326 kts 196°
2026-05-09 08:45 42.19997 19.18754 13391 ft 324 kts 196°
2026-05-09 08:45 42.17827 19.17975 12996 ft 322 kts 196°
2026-05-09 08:46 42.15673 19.17202 12607 ft 319 kts 196°
2026-05-09 08:46 42.13531 19.16435 12223 ft 318 kts 196°
2026-05-09 08:46 42.11399 19.15672 11843 ft 316 kts 196°
2026-05-09 08:46 42.09315 19.14918 11707 ft 305 kts 198°
2026-05-09 08:47 42.07448 19.13706 11583 ft 293 kts 217°
2026-05-09 08:47 42.06025 19.11819 11459 ft 284 kts 237°
2026-05-09 08:47 42.05123 19.09506 11313 ft 277 kts 251°
2026-05-09 08:47 42.04432 19.07111 10913 ft 273 kts 250°
2026-05-09 08:48 42.03744 19.04736 10385 ft 271 kts 250°
2026-05-09 08:48 42.03058 19.02379 9871 ft 270 kts 250°
2026-05-09 08:48 42.02377 19.00041 9331 ft 267 kts 250°
2026-05-09 08:48 42.01766 18.97701 8814 ft 263 kts 262°
2026-05-09 08:49 42.01877 18.95336 8353 ft 257 kts 291°
2026-05-09 08:49 42.02847 18.93372 7809 ft 253 kts 321°
2026-05-09 08:49 42.04383 18.92261 7256 ft 252 kts 339°
2026-05-09 08:49 42.06027 18.91422 6714 ft 252 kts 340°
2026-05-09 08:50 42.07657 18.90596 6246 ft 248 kts 340°
2026-05-09 08:50 42.09263 18.89781 5814 ft 246 kts 340°
2026-05-09 08:50 42.10858 18.88968 5398 ft 244 kts 340°
2026-05-09 08:50 42.12441 18.88158 4995 ft 243 kts 340°
2026-05-09 08:51 42.14032 18.87341 4581 ft 247 kts 339°
2026-05-09 08:51 42.15618 18.86430 4283 ft 246 kts 337°
2026-05-09 08:51 42.17219 18.85558 3828 ft 253 kts 339°
2026-05-09 08:51 42.18849 18.84727 3644 ft 246 kts 340°
2026-05-09 08:52 42.20446 18.83918 3309 ft 246 kts 339°
2026-05-09 08:52 42.22017 18.83119 3046 ft 232 kts 339°
2026-05-09 08:52 42.23438 18.82394 2920 ft 209 kts 339°
2026-05-09 08:52 42.24765 18.81718 2831 ft 198 kts 339°
2026-05-09 08:53 42.26033 18.81072 2743 ft 193 kts 339°
2026-05-09 08:53 42.27287 18.80432 2650 ft 193 kts 339°
2026-05-09 08:53 42.28542 18.79805 2533 ft 192 kts 341°
2026-05-09 08:53 42.29810 18.79231 2465 ft 193 kts 342°
2026-05-09 08:54 42.31085 18.78682 2342 ft 192 kts 341°
2026-05-09 08:54 42.32349 18.78092 2209 ft 193 kts 341°
2026-05-09 08:54 42.33577 18.77533 2053 ft 178 kts 341°
2026-05-09 08:54 42.34690 18.77025 1884 ft 157 kts 341°
2026-05-09 08:55 42.35698 18.76572 1656 ft 148 kts 341°
2026-05-09 08:55 42.36660 18.76123 1507 ft 145 kts 340°
2026-05-09 08:55 42.37617 18.75573 1771 ft 150 kts 326°
2026-05-09 08:55 42.38492 18.74849 2386 ft 146 kts 328°
2026-05-09 08:56 42.39329 18.73936 2726 ft 162 kts 317°
2026-05-09 08:56 42.40144 18.72846 3208 ft 166 kts 311°
2026-05-09 08:56 42.40535 18.71391 3719 ft 171 kts 268°
2026-05-09 08:56 42.40066 18.69927 4220 ft 176 kts 225°
2026-05-09 08:57 42.38966 18.69253 4718 ft 178 kts 184°
2026-05-09 08:57 42.37739 18.69306 5019 ft 174 kts 173°
2026-05-09 08:57 42.36538 18.69493 4716 ft 175 kts 171°
2026-05-09 08:57 42.35328 18.69706 4342 ft 176 kts 171°
2026-05-09 08:58 42.34121 18.69926 4039 ft 174 kts 171°
2026-05-09 08:58 42.32932 18.70175 3986 ft 174 kts 166°
2026-05-09 08:58 42.31766 18.70633 3981 ft 175 kts 161°
2026-05-09 08:58 42.30629 18.71146 3982 ft 175 kts 160°
2026-05-09 08:59 42.29460 18.71682 3982 ft 175 kts 160°
2026-05-09 08:59 42.28308 18.72212 3982 ft 175 kts 160°
2026-05-09 08:59 42.27154 18.72743 3990 ft 175 kts 160°
2026-05-09 08:59 42.26001 18.73284 3983 ft 175 kts 160°
2026-05-09 09:00 42.24849 18.73826 3991 ft 176 kts 160°
2026-05-09 09:00 42.23694 18.74369 3984 ft 175 kts 160°
2026-05-09 09:00 42.22543 18.74912 3992 ft 175 kts 160°
2026-05-09 09:00 42.21390 18.75455 3995 ft 176 kts 160°
2026-05-09 09:01 42.20238 18.75999 3999 ft 175 kts 160°
2026-05-09 09:01 42.19085 18.76543 3999 ft 175 kts 160°
2026-05-09 09:01 42.17933 18.77088 3999 ft 176 kts 160°
2026-05-09 09:01 42.16780 18.77632 4005 ft 176 kts 160°
2026-05-09 09:02 42.15628 18.78174 4004 ft 175 kts 160°
2026-05-09 09:02 42.14480 18.78716 3998 ft 175 kts 158°
2026-05-09 09:02 42.13512 18.79663 3997 ft 173 kts 125°
2026-05-09 09:02 42.13115 18.81157 4006 ft 171 kts 90°
2026-05-09 09:03 42.13415 18.82669 3996 ft 169 kts 56°
2026-05-09 09:03 42.14211 18.83816 3997 ft 168 kts 43°
2026-05-09 09:03 42.15045 18.84891 3997 ft 168 kts 42°
2026-05-09 09:03 42.16040 18.85677 4010 ft 167 kts 14°
2026-05-09 09:04 42.17191 18.85699 4001 ft 167 kts 346°
2026-05-09 09:04 42.18285 18.85155 4000 ft 166 kts 339°
2026-05-09 09:04 42.19358 18.84599 3993 ft 167 kts 339°
2026-05-09 09:04 42.20444 18.84039 3992 ft 167 kts 339°
2026-05-09 09:05 42.21532 18.83475 3998 ft 168 kts 339°
2026-05-09 09:05 42.22628 18.82909 3827 ft 169 kts 339°
2026-05-09 09:05 42.23713 18.82350 3563 ft 166 kts 339°
2026-05-09 09:05 42.24789 18.81795 3334 ft 165 kts 339°
2026-05-09 09:06 42.25861 18.81241 3096 ft 165 kts 339°
2026-05-09 09:06 42.26947 18.80682 2849 ft 162 kts 339°
2026-05-09 09:06 42.27953 18.80162 2643 ft 151 kts 339°
2026-05-09 09:06 42.28920 18.79663 2425 ft 148 kts 339°
2026-05-09 09:07 42.29874 18.79171 2218 ft 146 kts 339°
2026-05-09 09:07 42.30824 18.78682 2012 ft 146 kts 338°
2026-05-09 09:07 42.31761 18.78200 1812 ft 146 kts 339°
2026-05-09 09:07 42.32718 18.77704 1605 ft 145 kts 338°
2026-05-09 09:08 42.33656 18.77223 1417 ft 144 kts 338°
2026-05-09 09:08 42.34580 18.76750 1192 ft 143 kts 338°
2026-05-09 09:08 42.35510 18.76267 1006 ft 143 kts 339°
2026-05-09 09:08 42.36440 18.75785 799 ft 143 kts 339°
2026-05-09 09:09 42.37363 18.75299 599 ft 142 kts 337°
2026-05-09 09:09 42.38250 18.74718 418 ft 141 kts 328°
2026-05-09 09:09 42.39058 18.73977 215 ft 139 kts 319°
2026-05-09 09:09 42.39785 18.73130 22 ft 137 kts 317°
2026-05-09 09:10 42.40401 18.72402 4 ft 82 kts 319°
2026-05-09 09:10 42.40674 18.72081 1 ft 41 kts 319°
2026-05-09 09:10 42.40859 18.71864 4 ft 21 kts 319°
2026-05-09 09:10 42.40957 18.71804 6 ft 14 kts 28°
2026-05-09 09:11 42.40993 18.71854 7 ft 0 kts 47°
2026-05-09 09:11 42.40996 18.71856 7 ft 2 kts 31°
2026-05-09 09:11 42.41013 18.71854 8 ft 4 kts 341°
2026-05-09 09:12 42.41045 18.71818 7 ft 8 kts 318°
2026-05-09 09:12 42.41094 18.71762 6 ft 8 kts 320°
2026-05-09 09:12 42.41124 18.71765 7 ft 4 kts 49°
2026-05-09 09:12 42.41126 18.71793 8 ft 2 kts 123°
2026-05-09 09:13 42.41110 18.71799 8 ft 0 kts 172°